User: anonymous   Login
Location: Newark
(46.3567°N, 6.1428°E)
Time: 02:51:44
(UTC+00:00)
Language:

DX 1 - Orbit

View from above orbital plane
View from above orbital plane
View from above satellite
View from above satellite

Ground track
Ground track

The orbit data is extracted from the following two-line orbital elements,

1 40071U 14037C   19259.73368807  .00000038  00000-0  12472-4 0  9996
2 40071  98.4369  58.2708 0007459 302.7120  57.3375 14.81289610280586
Epoch (UTC): 16 September 2019 17:36:30
Eccentricity: 0.0007459
inclination: 98.4369°
perigee height: 620 km
apogee height: 630 km
right ascension of ascending node: 58.2708°
argument of perigee: 302.7120°
revolutions per day: 14.81289610
mean anomaly at epoch: 57.3375°
orbit number at epoch: 28058

The dashed part of the orbit path shows where the satellite is in the earth's shadow,  

DLR